Bekendmaking beslissing omgevingsvergunning

Nr OMV Nr gemeente Aanvrager Adres Project Datum
2018121552 2018/00702 Rodriguez Saina Sint-Denijsestraat 246 Kortrijk vellen boom 07/01/2019
2018140303 2018/00808 Waelkens Catherine B. Pyckestraat 37 Kortrijk vellen 1 populieren 07/01/2019
2018138997 2018/00799 Callewaert Jean Marie Guido Gezellelaan 34 Heule vellen boom 07/01/2019
2018135173 2018/00791 bouwwerken Taelman Luc Pastoor Dewittestraat 18 Heule rooien boom 07/01/2019
2018114334 2018/00757 Gallez Peter Bellegemsestraat 196 Bellegem bouwen garage 07/01/2019
2018107198 2018/00749 Tijtgat Nicky Peperstraat 159 Heule verbouwen woning 07/01/2019
2018128320 2018/00743 Koramic Real Estate Blauwkasteelstraat Aalbeke vellen bomen 07/01/2019
2018119891 2018/00735 Rotsaert Laurens Steenstraat 10 Heule verbouwen woning en bouwen bijgebouw 07/01/2019
2018124416 2018/00733 Demoor Tine Lindendreef 9 Kortrijk verbouwen woning met bureauruimte 07/01/2019
2018122849 2018/00722 Nikè Zwevegemsestraat 29-31 Kortrijk bouwen beluikwoning 07/01/2019
2018071745 2018/00649 Dekeerschieter Johan Pontestraat 71 Marke vellen populieren 07/01/2019
2018099272 2018/00641 Groep Huyzentruyt Cornelusweg Marke regularisatiewerken terreinaanlegwerken 07/01/2019
2018135316 2018/00838 Bouwonderneming Sentobin Broelkaai 1a Kortrijk Exploiteren bronbemaling 24/12/2018
2018139233 2018/00800 Ward Ghekiere Pachthofstraat 24 Heule Exploiteren propaangastank 24/12/2018
2018143737 2018/00842 Jan Romel Pater Damiaanstraat 14 Kortrijk Exploiteren bronbemaling 24/12/2018
2018109356 2018/00628 Begrafenissen Planckaert Rekkemsestraat 83 Marke Bouwen van een funerarium 24/12/2018
2018132445 2018/00769 vzw Damast Beekstraat 117 Kortrijk Overname centrum voor deeltijds onderwijs 24/12/2018
2018129930 2018/00839 Tom Detremmerie Munkendoornstraat 116 Kortrijk Exploiteren propaangastank 24/12/2018
2018095463 2018/00926 Telenet Rekollettenstraat 84 Kortrijk  Exploiteren kopstation 19/12/2018
2018142421 2018/00826 Donald Pauwels Bissegemsestraat 153 Bissegem Exploiteren van een schrijnwerkerij 17/12/2018
2018147764 2018/00858 Tony Vandenbulcke Marktstraat 10 Marke Exploiteren polyvalente zaal 17/12/2018
2018052316 2018/00548 De Waele Arnout Lauwsestraat 152 Marke nieuwe toegangsweg 24/12/2018
2018130257 2018/00754 Stad Kortrijk Burgemeester Nolfstraat 49 Kortrijk aanleggen BMX parcours 24/12/2018
2018078298 2018/00678 Heilige Familie Groeningepoort 4 Kortrijk sloop schoolgebouwen en gedeelte psychiatrisch ziekenhuis 24/12/2018
2018141288 2018/00814 Fluvius Peryckelstraat Bellegem plaatsen hoogspanningscabine 24/12/2018
2018133316 2018/00763 Pham Thi Tho Doorniksewijk 91 Kortrijk publiciteit + functiewijziging 24/12/2018
2018111265 2018/00773 EG Retail Doorniksesteenweg 17 Kortrijk publiciteit 24/12/2018
2018129276 2018/00755 Carick Carl Jacques Picquartstraat 14 Kortrijk bouwen ééngezinswoning 24/12/2018
2018127953 2018/00739 Van Quickenborne Vincent Morgenzon Kortrijk bouwen ééngezinswoning met bijgebouw 24/12/2018
2018126873 2018/00738 Dekeerschieter Johan Pontestraat 71 Marke isoleren van 4 gevels ééngezinswoning 24/12/2018
2018114027 2018/00732 Rhizo Beekstraat 101/103 plaatsen containergebouwtje 24/12/2018
2018086248 2018/00717 Koraton Visserskaai 26 Kortrijk slopen woning bij bedrijfsite 24/12/2018
2018123867 2018/00716 Vanlandeghem Hitoshi St Goedelievestraat 11 Heule bouwen carport 24/12/2018
2018122259 2018/00714 Kruppa Jan Brugsesteenweg 164 Kortrijk uitbreiden woning 24/12/2018
2018123394 2018/00712 Deweerdt Jan Overleiestraat 46 Kortrijk plaatsen haakse gevelbanner 24/11/2018
2018122597 2018/00708 Verfaellie Marleen Erasmuslaan 11 Kortrijk vellen van bomen 24/12/2018
2018122083 2018/00705 Rigolle Dries Peperstraat 152 Heule verbouwen ééngezinswoning 24/12/2018
2018121716 2018/00703 Neon Elite Moeskroensesteenweg 100 Aalbeke plaatsen uithangborden 24/12/2018
2018104383 2018/00692 Van Maelsaeke Claude Bruyningstraat 56A Kortrijk bouwen fietsenberging en omheining school 24/12/2018
2018106567 2018/00607 Sandra Snick Vogelzanglaan 13 Kortrijk verbouwen ééngezinswoning 24/12/2018
2018138237 2018/00828 Pieter Verburgh Bohemenberg 22 Kortrijk stabiliseringswerken - vervangen kolom t.h.v. de achtergevel 17/12/2018
2018098923 2018/00566 Marjan Bruneel Slagling 9 Heule vernieuwen carport en plaatsen poortje in zijperceelsgrens 17/12/2018
2018016864 2018/00720 Annick Tolpe Oudenaardsesteenweg 291 Kortrijk slopen en herbouwen eengezinswoning met handelsruimte 17/12/2018
2018117048 2018/00718 Mohamed Teghlaoui Veldstraat 72A Kortrijk uitbreiden meergezinswoning 17/12/2018
2018123033 2018/00713 ANKRIMO BVBA Edgar Tinellaan 8 Kortrijk verbouwen van een woning en bouwen van een annex na afbraak bestaande annex 17/12/2018
2018122807 2018/00711 Jelle Vandecasteele Beginnestraat 5 Marke afbraak woning en heropbouw privewoning 17/12/2018
2018121108 2018/00710 Evolin BVBA Meensesteenweg Kortrijk bouwen van een vrijstaande eengezinswoning 17/12/2018
2018122299 2018/00707 Stone-Quality BVBA Stasegemsestraat 1 Kortrijk regularisatie : bouwen van meergezinswoning met deels behoud bestaande gevel 17/12/2018
2018120782 2018/00698 Damienne Pieters Koningin Elisabethlaan 70 Kortrijk plaatsen van publiciteit 17/12/2018
2018117293 2018/00683 ACLC-Reno BVBA Moorseelsestraat 163 Heule isoleren van de voorgevel en afwerken met crepi 17/12/2018
2018101168 2018/00656 Fiorano's NV Walle 113, A-B-C-D-E-F-G Kortrijk slopen van een bestaand gebouw 17/12/2018
2018089038 2018/00512 Lauriana Vercruysse Watermolenwal 32 Heule functiewijziging van kantoor naar conciërgewoning 17/12/2018
2018074531 2018/00537 Johan Deneve Zevekotestraat 35 Aalbeke verkavelingsaanvraag voor 2 eengezinswoningen open bebouwing, na sloping van een oude onaangepaste woning 10/12/2018
2018108883 2018/00636 F.C.B  O.L.Vrouwestraat 33 Kortrijk omvormen van een ééngezinswoning tot een meergezinswoning 03/12/2018
2018138788 2018/00805 Dedires Korte Steenstraat 12 Kortrijk wijzigen winkelpui en plaatsen publiciteit aan de gevel 10/12/2018
2018120898 2018/00697 Cnudde Heidi Rollegemkerkstraat  beperkt vellen van bomen en/of reliëfwijzigingen 10/12/2018
2018116508 2018/00662 Vermoortele Robert Bouwen van een garage Hektor Casteleinstraat 23 Kortrijk 10/12/2018
2018114952 2018/00655 Deraedt Stephan Hoogplaatsstraat 10 Kortrijk beperkt vellen van bomen en/of refiëfwijzigingen 10/12/2018
2018116406 2018/00661 Willems Carina Kortrijksestraat 32-34 Kortrijk beperkt vellen van bomen en/of reliëfwijzigingen 10/12/2018
2018112832 2018/00637 Kemseke Colette Risquans-Toutstraat 18 Kortrijk beperkt vellen van bomen en/of reliëfwijzigingen 10/12/2018
2018113281 2018/00657 Bouckenhove Frank Oude Ieperseweg bouwen van een aaneengesloten woning 03/12/2018
2018109038 2018/00659 Warnez Katrien Sasboslaan 16 A Kortrijk aanleggen keermuren en reliëf bodem wijzigingen 03/12/2018
2018096293 2018/00767 Anohid Stephanie Bissegemsestraat 86 Kortrijk totempaal 03/12/2018
2018126786 2018/00730 Herroelen Martine Julienne Wandelingstraat 45 8500 Kortrijk vervangen van de ramen 03/12/2018
2018119502 2018/00686 Vral Joost  Bruyningstraat 101 Kortrijk beperkt vellen van bomen en/of reliëfwijzigingen 03/12/2018
2018119260 2018/00684 Senepart Barbara Antoon Van Dycklaan 116 Kortrijk vellen van 3 bomen 03/12/2018
2018117722 2018/00671 Leenaert Nick Kasteelkaai 3 Kortrijk gevelrenovatie 03/12/2018
2018116277 2018/00669 Voet Mathilde Munkendoornstraat Kortrijk bouwen van een ééngezinswoning 03/12/2018
2018028227 2018/00553 Universiteit Gent Graaf Karel de Goedelaan 32 Kortrijk Bouwen van een onderzoekscentrum 29/11/2018
2018112909 2018/00668 Hulpverleningszone Fluvia Doorniksesteenweg 214 A Kortrijk bouwen fietsberging brandweerkazerne  03/12/2018
2018112449 2018/00633 Vanden Broucke Dirk Pottelberg 115-117 Kortrijk vervangen glazen wand op gelijksvloer door muur met ramen en deur 03/12/2018
2018109087 2018/00626 Rahmani Brahim Kreupelstraat 17 Kortrijk verbouwen woning en herbouwen garage 03/12/2018
2018104141 2018/00595 Casakor patrick Kleine Bissegemstraat Kortrijk bouwen van een woning 03/12/2018
2018103874 2018/00587 Bens Marc Minster A. De Clercklaan 33 Kortrijk aanbouwen bijgebouw 03/12/2018
2018098017 2018/00560  Slaets Benoit Doorniksewijk 99 kortrijk aanbrengen van publiciteit en het plaatsen van een zonnetent 03/12/2018
2018085730 2018/00518 Craeymeersch NV Spoorbermstraat 20 Kortrijk verbouwen en uitbreiden van een bestaande showroom + het exploiteren van een garagewerkplaats 03/12/2018